Year,Month,Day,Hour,Minute,Value (Times are PST for temperature in C)
2016,08,08,00,00,12.90
2016,08,08,00,01,12.90
2016,08,08,00,02,12.90
2016,08,08,00,03,12.90
2016,08,08,00,04,12.90
2016,08,08,00,05,12.90
2016,08,08,00,06,12.90
2016,08,08,00,07,12.90
2016,08,08,00,08,12.90
2016,08,08,00,09,12.90
2016,08,08,00,10,12.90
2016,08,08,00,11,12.90
2016,08,08,00,12,12.90
2016,08,08,00,13,12.90
2016,08,08,00,14,12.90
2016,08,08,00,15,12.90
2016,08,08,00,16,12.80
2016,08,08,00,17,12.80
2016,08,08,00,18,12.80
2016,08,08,00,19,12.80
2016,08,08,00,20,12.80
2016,08,08,00,21,12.80
2016,08,08,00,22,12.80
2016,08,08,00,23,12.70
2016,08,08,00,24,12.70
2016,08,08,00,25,12.70
2016,08,08,00,26,12.70
2016,08,08,00,27,12.70
2016,08,08,00,28,12.70
2016,08,08,00,29,12.70
2016,08,08,00,30,12.70
2016,08,08,00,31,12.70
2016,08,08,00,32,12.70
2016,08,08,00,33,12.70
2016,08,08,00,34,12.60
2016,08,08,00,35,12.60
2016,08,08,00,36,12.60
2016,08,08,00,37,12.60
2016,08,08,00,38,12.60
2016,08,08,00,39,12.60
2016,08,08,00,40,12.60
2016,08,08,00,41,12.60
2016,08,08,00,42,12.60
2016,08,08,00,43,12.60
2016,08,08,00,44,12.60
2016,08,08,00,45,12.50
2016,08,08,00,46,12.50
2016,08,08,00,47,12.50
2016,08,08,00,48,12.40
2016,08,08,00,49,12.40
2016,08,08,00,50,12.40
2016,08,08,00,51,12.40
2016,08,08,00,52,12.40
2016,08,08,00,53,12.40
2016,08,08,00,54,12.30
2016,08,08,00,55,12.30
2016,08,08,00,56,12.30
2016,08,08,00,57,12.30
2016,08,08,00,58,12.30
2016,08,08,00,59,12.30
2016,08,08,01,00,12.30
2016,08,08,01,01,12.30
2016,08,08,01,02,12.30
2016,08,08,01,03,12.20
2016,08,08,01,04,12.20
2016,08,08,01,05,12.20
2016,08,08,01,06,12.20
2016,08,08,01,07,12.20
2016,08,08,01,08,12.20
2016,08,08,01,09,12.20
2016,08,08,01,10,12.20
2016,08,08,01,11,12.20
2016,08,08,01,12,12.20
2016,08,08,01,13,12.20
2016,08,08,01,14,12.20
2016,08,08,01,15,12.20
2016,08,08,01,16,12.30
2016,08,08,01,17,12.30
2016,08,08,01,18,12.30
2016,08,08,01,19,12.30
2016,08,08,01,20,12.30
2016,08,08,01,21,12.30
2016,08,08,01,22,12.30
2016,08,08,01,23,12.30
2016,08,08,01,24,12.30
2016,08,08,01,25,12.30
2016,08,08,01,26,12.30
2016,08,08,01,27,12.30
2016,08,08,01,28,12.30
2016,08,08,01,29,12.30
2016,08,08,01,30,12.30
2016,08,08,01,31,12.30
2016,08,08,01,32,12.30
2016,08,08,01,33,12.30
2016,08,08,01,34,12.30
2016,08,08,01,35,12.30
2016,08,08,01,36,12.30
2016,08,08,01,37,12.30
2016,08,08,01,38,12.30
2016,08,08,01,39,12.40
2016,08,08,01,40,12.40
2016,08,08,01,41,12.40
2016,08,08,01,42,12.40
2016,08,08,01,43,12.40
2016,08,08,01,44,12.40
2016,08,08,01,45,12.40
2016,08,08,01,46,12.40
2016,08,08,01,47,12.40
2016,08,08,01,48,12.40
2016,08,08,01,49,12.40
2016,08,08,01,50,12.40
2016,08,08,01,51,12.40
2016,08,08,01,52,12.40
2016,08,08,01,53,12.40
2016,08,08,01,54,12.40
2016,08,08,01,55,12.40
2016,08,08,01,56,12.40
2016,08,08,01,57,12.50
2016,08,08,01,58,12.50
2016,08,08,01,59,12.50
2016,08,08,02,00,12.50
2016,08,08,02,01,12.50
2016,08,08,02,02,12.50
2016,08,08,02,03,12.50
2016,08,08,02,04,12.50
2016,08,08,02,05,12.60
2016,08,08,02,06,12.60
2016,08,08,02,07,12.60
2016,08,08,02,08,12.60
2016,08,08,02,09,12.60
2016,08,08,02,10,12.70
2016,08,08,02,11,12.70
2016,08,08,02,12,12.70
2016,08,08,02,13,12.70
2016,08,08,02,14,12.70
2016,08,08,02,15,12.70
2016,08,08,02,16,12.70
2016,08,08,02,17,12.70
2016,08,08,02,18,12.70
2016,08,08,02,19,12.70
2016,08,08,02,20,12.70
2016,08,08,02,21,12.80
2016,08,08,02,22,12.80
2016,08,08,02,23,12.80
2016,08,08,02,24,12.80
2016,08,08,02,25,12.80
2016,08,08,02,26,12.80
2016,08,08,02,27,12.80
2016,08,08,02,28,12.80
2016,08,08,02,29,12.80
2016,08,08,02,30,12.80
2016,08,08,02,31,12.80
2016,08,08,02,32,12.80
2016,08,08,02,33,12.80
2016,08,08,02,34,12.80
2016,08,08,02,35,12.80
2016,08,08,02,36,12.80
2016,08,08,02,37,12.80
2016,08,08,02,38,12.80
2016,08,08,02,39,12.80
2016,08,08,02,40,12.80
2016,08,08,02,41,12.80
2016,08,08,02,42,12.80
2016,08,08,02,43,12.80
2016,08,08,02,44,12.80
2016,08,08,02,45,12.80
2016,08,08,02,46,12.80
2016,08,08,02,47,12.80
2016,08,08,02,48,12.80
2016,08,08,02,49,12.80
2016,08,08,02,50,12.80
2016,08,08,02,51,12.80
2016,08,08,02,52,12.80
2016,08,08,02,53,12.70
2016,08,08,02,54,12.70
2016,08,08,02,55,12.70
2016,08,08,02,56,12.70
2016,08,08,02,57,12.70
2016,08,08,02,58,12.70
2016,08,08,02,59,12.70
2016,08,08,03,00,12.70
2016,08,08,03,01,12.70
2016,08,08,03,02,12.70
2016,08,08,03,03,12.70
2016,08,08,03,04,12.70
2016,08,08,03,05,12.70
2016,08,08,03,06,12.70
2016,08,08,03,07,12.70
2016,08,08,03,08,12.70
2016,08,08,03,09,12.70
2016,08,08,03,10,12.70
2016,08,08,03,11,12.60
2016,08,08,03,12,12.60
2016,08,08,03,13,12.60
2016,08,08,03,14,12.60
2016,08,08,03,15,12.60
2016,08,08,03,16,12.60
2016,08,08,03,17,12.60
2016,08,08,03,18,12.60
2016,08,08,03,19,12.50
2016,08,08,03,20,12.50
2016,08,08,03,21,12.50
2016,08,08,03,22,12.50
2016,08,08,03,23,12.50
2016,08,08,03,24,12.50
2016,08,08,03,25,12.50
2016,08,08,03,26,12.50
2016,08,08,03,27,12.50
2016,08,08,03,28,12.40
2016,08,08,03,29,12.50
2016,08,08,03,30,12.50
2016,08,08,03,31,12.50
2016,08,08,03,32,12.50
2016,08,08,03,33,12.50
2016,08,08,03,34,12.50
2016,08,08,03,35,12.50
2016,08,08,03,36,12.50
2016,08,08,03,37,12.50
2016,08,08,03,38,12.50
2016,08,08,03,39,12.50
2016,08,08,03,40,12.60
2016,08,08,03,41,12.60
2016,08,08,03,42,12.60
2016,08,08,03,43,12.60
2016,08,08,03,44,12.60
2016,08,08,03,45,12.60
2016,08,08,03,46,12.60
2016,08,08,03,47,12.60
2016,08,08,03,48,12.60
2016,08,08,03,49,12.60
2016,08,08,03,50,12.60
2016,08,08,03,51,12.60
2016,08,08,03,52,12.60
2016,08,08,03,53,12.60
2016,08,08,03,54,12.60
2016,08,08,03,55,12.60
2016,08,08,03,56,12.60
2016,08,08,03,57,12.60
2016,08,08,03,58,12.70
2016,08,08,03,59,12.70
2016,08,08,04,00,12.70
2016,08,08,04,01,12.70
2016,08,08,04,02,12.70
2016,08,08,04,03,12.70
2016,08,08,04,04,12.70
2016,08,08,04,05,12.70
2016,08,08,04,06,12.80
2016,08,08,04,07,12.80
2016,08,08,04,08,12.80
2016,08,08,04,09,12.80
2016,08,08,04,10,12.80
2016,08,08,04,11,12.80
2016,08,08,04,12,12.80
2016,08,08,04,13,12.80
2016,08,08,04,14,12.80
2016,08,08,04,15,12.80
2016,08,08,04,16,12.80
2016,08,08,04,17,12.80
2016,08,08,04,18,12.80
2016,08,08,04,19,12.80
2016,08,08,04,20,12.80
2016,08,08,04,21,12.80
2016,08,08,04,22,12.80
2016,08,08,04,23,12.80
2016,08,08,04,24,12.90
2016,08,08,04,25,12.90
2016,08,08,04,26,12.90
2016,08,08,04,27,12.90
2016,08,08,04,28,12.90
2016,08,08,04,29,12.90
2016,08,08,04,30,12.90
2016,08,08,04,31,12.90
2016,08,08,04,32,13.00
2016,08,08,04,33,13.00
2016,08,08,04,34,13.00
2016,08,08,04,35,13.00
2016,08,08,04,36,13.00
2016,08,08,04,37,13.00
2016,08,08,04,38,13.00
2016,08,08,04,39,13.00
2016,08,08,04,40,13.10
2016,08,08,04,41,13.10
2016,08,08,04,42,13.10
2016,08,08,04,43,13.10
2016,08,08,04,44,13.10
2016,08,08,04,45,13.10
2016,08,08,04,46,13.10
2016,08,08,04,47,13.10
2016,08,08,04,48,13.10
2016,08,08,04,49,13.10
2016,08,08,04,50,13.10
2016,08,08,04,51,13.20
2016,08,08,04,52,13.20
2016,08,08,04,53,13.20
2016,08,08,04,54,13.20
2016,08,08,04,55,13.20
2016,08,08,04,56,13.20
2016,08,08,04,57,13.20
2016,08,08,04,58,13.20
2016,08,08,04,59,13.20
2016,08,08,05,00,13.20
2016,08,08,05,01,13.20
2016,08,08,05,02,13.20
2016,08,08,05,03,13.20
2016,08,08,05,04,13.20
2016,08,08,05,05,13.20
2016,08,08,05,06,13.20
2016,08,08,05,07,13.30
2016,08,08,05,08,13.30
2016,08,08,05,09,13.30
2016,08,08,05,10,13.30
2016,08,08,05,11,13.30
2016,08,08,05,12,13.30
2016,08,08,05,13,13.30
2016,08,08,05,14,13.30
2016,08,08,05,15,13.30
2016,08,08,05,16,13.30
2016,08,08,05,17,13.30
2016,08,08,05,18,13.30
2016,08,08,05,19,13.30
2016,08,08,05,20,13.30
2016,08,08,05,21,13.30
2016,08,08,05,22,13.30
2016,08,08,05,23,13.30
2016,08,08,05,24,13.30
2016,08,08,05,25,13.30
2016,08,08,05,26,13.30
2016,08,08,05,27,13.30
2016,08,08,05,28,13.30
2016,08,08,05,29,13.30
2016,08,08,05,30,13.30
2016,08,08,05,31,13.30
2016,08,08,05,32,13.30
2016,08,08,05,33,13.30
2016,08,08,05,34,13.30
2016,08,08,05,35,13.30
2016,08,08,05,36,13.30
2016,08,08,05,37,13.30
2016,08,08,05,38,13.30
2016,08,08,05,39,13.20
2016,08,08,05,40,13.20
2016,08,08,05,41,13.20
2016,08,08,05,42,13.20
2016,08,08,05,43,13.20
2016,08,08,05,44,13.20
2016,08,08,05,45,13.20
2016,08,08,05,46,13.20
2016,08,08,05,47,13.20
2016,08,08,05,48,13.20
2016,08,08,05,49,13.20
2016,08,08,05,50,13.20
2016,08,08,05,51,13.20
2016,08,08,05,52,13.20
2016,08,08,05,53,13.20
2016,08,08,05,54,13.20
2016,08,08,05,55,13.20
2016,08,08,05,56,13.20
2016,08,08,05,57,13.20
2016,08,08,05,58,13.20
2016,08,08,05,59,13.20
2016,08,08,06,00,13.20
2016,08,08,06,01,13.20
2016,08,08,06,02,13.20
2016,08,08,06,03,13.20
2016,08,08,06,04,13.20
2016,08,08,06,05,13.20
2016,08,08,06,06,13.30
2016,08,08,06,07,13.30
2016,08,08,06,08,13.30
2016,08,08,06,09,13.30
2016,08,08,06,10,13.30
2016,08,08,06,11,13.30
2016,08,08,06,12,13.30
2016,08,08,06,13,13.30
2016,08,08,06,14,13.30
2016,08,08,06,15,13.30
2016,08,08,06,16,13.30
2016,08,08,06,17,13.30
2016,08,08,06,18,13.30
2016,08,08,06,19,13.30
2016,08,08,06,20,13.30
2016,08,08,06,21,13.30
2016,08,08,06,22,13.30
2016,08,08,06,23,13.30
2016,08,08,06,24,13.30
2016,08,08,06,25,13.30
2016,08,08,06,26,13.30
2016,08,08,06,27,13.40
2016,08,08,06,28,13.40
2016,08,08,06,29,13.40
2016,08,08,06,30,13.40
2016,08,08,06,31,13.40
2016,08,08,06,32,13.40
2016,08,08,06,33,13.40
2016,08,08,06,34,13.40
2016,08,08,06,35,13.40
2016,08,08,06,36,13.40
2016,08,08,06,37,13.50
2016,08,08,06,38,13.50
2016,08,08,06,39,13.50
2016,08,08,06,40,13.50
2016,08,08,06,41,13.60
2016,08,08,06,42,13.60
2016,08,08,06,43,13.60
2016,08,08,06,44,13.60
2016,08,08,06,45,13.60
2016,08,08,06,46,13.60
2016,08,08,06,47,13.60
2016,08,08,06,48,13.70
2016,08,08,06,49,13.70
2016,08,08,06,50,13.70
2016,08,08,06,51,13.70
2016,08,08,06,52,13.70
2016,08,08,06,53,13.70
2016,08,08,06,54,13.70
2016,08,08,06,55,13.70
2016,08,08,06,56,13.70
2016,08,08,06,57,13.70
2016,08,08,06,58,13.70
2016,08,08,06,59,13.70
2016,08,08,07,00,13.70
2016,08,08,07,01,13.80
2016,08,08,07,02,13.80
2016,08,08,07,03,13.80
2016,08,08,07,04,13.80
2016,08,08,07,05,13.80
2016,08,08,07,06,13.80
2016,08,08,07,07,13.80
2016,08,08,07,08,13.80
2016,08,08,07,09,13.80
2016,08,08,07,10,13.80
2016,08,08,07,11,13.90
2016,08,08,07,12,13.90
2016,08,08,07,13,13.90
2016,08,08,07,14,13.90
2016,08,08,07,15,13.90
2016,08,08,07,16,13.90
2016,08,08,07,17,14.00
2016,08,08,07,18,14.00
2016,08,08,07,19,14.00
2016,08,08,07,20,14.10
2016,08,08,07,21,14.10
2016,08,08,07,22,14.10
2016,08,08,07,23,14.10
2016,08,08,07,24,14.10
2016,08,08,07,25,14.10
2016,08,08,07,26,14.20
2016,08,08,07,27,14.20
2016,08,08,07,28,14.20
2016,08,08,07,29,14.20
2016,08,08,07,30,14.20
2016,08,08,07,31,14.20
2016,08,08,07,32,14.20
2016,08,08,07,33,14.20
2016,08,08,07,34,14.30
2016,08,08,07,35,14.30
2016,08,08,07,36,14.30
2016,08,08,07,37,14.30
2016,08,08,07,38,14.30
2016,08,08,07,39,14.30
2016,08,08,07,40,14.30
2016,08,08,07,41,14.40
2016,08,08,07,42,14.40
2016,08,08,07,43,14.40
2016,08,08,07,44,14.40
2016,08,08,07,45,14.50
2016,08,08,07,46,14.50
2016,08,08,07,47,14.50
2016,08,08,07,48,14.50
2016,08,08,07,49,14.50
2016,08,08,07,50,14.60
2016,08,08,07,51,14.60
2016,08,08,07,52,14.60
2016,08,08,07,53,14.60
2016,08,08,07,54,14.60
2016,08,08,07,55,14.60
2016,08,08,07,56,14.60
2016,08,08,07,57,14.60
2016,08,08,07,58,14.60
2016,08,08,07,59,14.60
2016,08,08,08,00,14.60
2016,08,08,08,01,14.60
2016,08,08,08,02,14.60
2016,08,08,08,03,14.70
2016,08,08,08,04,14.70
2016,08,08,08,05,14.70
2016,08,08,08,06,14.70
2016,08,08,08,07,14.70
2016,08,08,08,08,14.70
2016,08,08,08,09,14.70
2016,08,08,08,10,14.70
2016,08,08,08,11,14.80
2016,08,08,08,12,14.80
2016,08,08,08,13,14.80
2016,08,08,08,14,14.80
2016,08,08,08,15,14.80
2016,08,08,08,16,14.80
2016,08,08,08,17,14.90
2016,08,08,08,18,14.90
2016,08,08,08,19,14.90
2016,08,08,08,20,14.90
2016,08,08,08,21,14.90
2016,08,08,08,22,15.00
2016,08,08,08,23,15.00
2016,08,08,08,24,15.00
2016,08,08,08,25,15.10
2016,08,08,08,26,15.10
2016,08,08,08,27,15.10
2016,08,08,08,28,15.10
2016,08,08,08,29,15.20
2016,08,08,08,30,15.20
2016,08,08,08,31,15.20
2016,08,08,08,32,15.20
2016,08,08,08,33,15.20
2016,08,08,08,34,15.20
2016,08,08,08,35,15.30
2016,08,08,08,36,15.30
2016,08,08,08,37,15.30
2016,08,08,08,38,15.40
2016,08,08,08,39,15.40
2016,08,08,08,40,15.40
2016,08,08,08,41,15.50
2016,08,08,08,42,15.50
2016,08,08,08,43,15.60
2016,08,08,08,44,15.60
2016,08,08,08,45,15.60
2016,08,08,08,46,15.60
2016,08,08,08,47,15.70
2016,08,08,08,48,15.70
2016,08,08,08,49,15.70
2016,08,08,08,50,15.80
2016,08,08,08,51,15.80
2016,08,08,08,52,15.80
2016,08,08,08,53,15.80
2016,08,08,08,54,15.90
2016,08,08,08,55,15.90
2016,08,08,08,56,16.00
2016,08,08,08,57,16.00
2016,08,08,08,58,16.10
2016,08,08,08,59,16.10
2016,08,08,09,00,16.20
2016,08,08,09,01,16.20
2016,08,08,09,02,16.20
2016,08,08,09,03,16.20
2016,08,08,09,04,16.30
2016,08,08,09,05,16.30
2016,08,08,09,06,16.30
2016,08,08,09,07,16.40
2016,08,08,09,08,16.40
2016,08,08,09,09,16.50
2016,08,08,09,10,16.50
2016,08,08,09,11,16.60
2016,08,08,09,12,16.60
2016,08,08,09,13,16.70
2016,08,08,09,14,16.70
2016,08,08,09,15,16.80
2016,08,08,09,16,16.90
2016,08,08,09,17,16.90
2016,08,08,09,18,17.00
2016,08,08,09,19,17.10
2016,08,08,09,20,17.10
2016,08,08,09,21,17.20
2016,08,08,09,22,17.20
2016,08,08,09,23,17.30
2016,08,08,09,24,17.30
2016,08,08,09,25,17.40
2016,08,08,09,26,17.50
2016,08,08,09,27,17.60
2016,08,08,09,28,17.60
2016,08,08,09,29,17.70
2016,08,08,09,30,17.70
2016,08,08,09,31,17.80
2016,08,08,09,32,17.80
2016,08,08,09,33,17.90
2016,08,08,09,34,17.90
2016,08,08,09,35,18.00
2016,08,08,09,36,18.00
2016,08,08,09,37,18.10
2016,08,08,09,38,18.10
2016,08,08,09,39,18.20
2016,08,08,09,40,18.20
2016,08,08,09,41,18.20
2016,08,08,09,42,18.30
2016,08,08,09,43,18.30
2016,08,08,09,44,18.30
2016,08,08,09,45,18.30
2016,08,08,09,46,18.30
2016,08,08,09,47,18.30
2016,08,08,09,48,18.30
2016,08,08,09,49,18.30
2016,08,08,09,50,18.40
2016,08,08,09,51,18.40
2016,08,08,09,52,18.30
2016,08,08,09,53,18.30
2016,08,08,09,54,18.30
2016,08,08,09,55,18.30
2016,08,08,09,56,18.30
2016,08,08,09,57,18.30
2016,08,08,09,58,18.30
2016,08,08,09,59,18.40
2016,08,08,10,00,18.40
2016,08,08,10,01,18.50
2016,08,08,10,02,18.50
2016,08,08,10,03,18.50
2016,08,08,10,04,18.50
2016,08,08,10,05,18.60
2016,08,08,10,06,18.60
2016,08,08,10,07,18.60
2016,08,08,10,08,18.60
2016,08,08,10,09,18.70
2016,08,08,10,10,18.70
2016,08,08,10,11,18.70
2016,08,08,10,12,18.80
2016,08,08,10,13,18.80
2016,08,08,10,14,18.90
2016,08,08,10,15,19.00
2016,08,08,10,16,19.00
2016,08,08,10,17,19.10
2016,08,08,10,18,19.10
2016,08,08,10,19,19.20
2016,08,08,10,20,19.20
2016,08,08,10,21,19.30
2016,08,08,10,22,19.30
2016,08,08,10,23,19.30
2016,08,08,10,24,19.30
2016,08,08,10,25,19.30
2016,08,08,10,26,19.20
2016,08,08,10,27,19.20
2016,08,08,10,28,19.20
2016,08,08,10,29,19.20
2016,08,08,10,30,19.10
2016,08,08,10,31,19.10
2016,08,08,10,32,19.10
2016,08,08,10,33,19.00
2016,08,08,10,34,19.00
2016,08,08,10,35,18.90
2016,08,08,10,36,18.90
2016,08,08,10,37,18.90
2016,08,08,10,38,18.90
2016,08,08,10,39,18.90
2016,08,08,10,40,18.90
2016,08,08,10,41,18.90
2016,08,08,10,42,18.90
2016,08,08,10,43,18.90
2016,08,08,10,44,18.90
2016,08,08,10,45,18.90
2016,08,08,10,46,18.80
2016,08,08,10,47,18.80
2016,08,08,10,48,18.80
2016,08,08,10,49,18.80
2016,08,08,10,50,18.70
2016,08,08,10,51,18.70
2016,08,08,10,52,18.70
2016,08,08,10,53,18.70
2016,08,08,10,54,18.60
2016,08,08,10,55,18.60
2016,08,08,10,56,18.60
2016,08,08,10,57,18.60
2016,08,08,10,58,18.70
2016,08,08,10,59,18.70
2016,08,08,11,00,18.80
2016,08,08,11,01,18.80
2016,08,08,11,02,18.80
2016,08,08,11,03,18.80
2016,08,08,11,04,18.80
2016,08,08,11,05,18.90
2016,08,08,11,06,18.90
2016,08,08,11,07,19.00
2016,08,08,11,08,19.00
2016,08,08,11,09,19.00
2016,08,08,11,10,19.10
2016,08,08,11,11,19.10
2016,08,08,11,12,19.10
2016,08,08,11,13,19.10
2016,08,08,11,14,19.10
2016,08,08,11,15,19.00
2016,08,08,11,16,19.00
2016,08,08,11,17,19.00
2016,08,08,11,18,18.90
2016,08,08,11,19,18.90
2016,08,08,11,20,18.90
2016,08,08,11,21,18.90
2016,08,08,11,22,18.90
2016,08,08,11,23,18.90
2016,08,08,11,24,18.90
2016,08,08,11,25,18.90
2016,08,08,11,26,18.90
2016,08,08,11,27,18.90
2016,08,08,11,28,18.90
2016,08,08,11,29,18.90
2016,08,08,11,30,18.90
2016,08,08,11,31,19.00
2016,08,08,11,32,19.00
2016,08,08,11,33,19.10
2016,08,08,11,34,19.10
2016,08,08,11,35,19.10
2016,08,08,11,36,19.10
2016,08,08,11,37,19.10
2016,08,08,11,38,19.10
2016,08,08,11,39,19.10
2016,08,08,11,40,19.10
2016,08,08,11,41,19.20
2016,08,08,11,42,19.20
2016,08,08,11,43,19.30
2016,08,08,11,44,19.30
2016,08,08,11,45,19.40
2016,08,08,11,46,19.50
2016,08,08,11,47,19.60
2016,08,08,11,48,19.60
2016,08,08,11,49,19.60
2016,08,08,11,50,19.60
2016,08,08,11,51,19.70
2016,08,08,11,52,19.70
2016,08,08,11,53,19.80
2016,08,08,11,54,19.80
2016,08,08,11,55,19.90
2016,08,08,11,56,20.10
2016,08,08,11,57,20.20
2016,08,08,11,58,20.20
2016,08,08,11,59,20.30
2016,08,08,12,00,20.30
2016,08,08,12,01,20.30
2016,08,08,12,02,20.30
2016,08,08,12,03,20.30
2016,08,08,12,04,20.30
2016,08,08,12,05,20.30
2016,08,08,12,06,20.30
2016,08,08,12,07,20.30
2016,08,08,12,08,20.30
2016,08,08,12,09,20.30
2016,08,08,12,10,20.30
2016,08,08,12,11,20.30
2016,08,08,12,12,20.40
2016,08,08,12,13,20.40
2016,08,08,12,14,20.40
2016,08,08,12,15,20.40
2016,08,08,12,16,20.30
2016,08,08,12,17,20.30
2016,08,08,12,18,20.30
2016,08,08,12,19,20.20
2016,08,08,12,20,20.20
2016,08,08,12,21,20.20
2016,08,08,12,22,20.20
2016,08,08,12,23,20.20
2016,08,08,12,24,20.20
2016,08,08,12,25,20.20
2016,08,08,12,26,20.20
2016,08,08,12,27,20.20
2016,08,08,12,28,20.20
2016,08,08,12,29,20.30
2016,08,08,12,30,20.20
2016,08,08,12,31,20.20
2016,08,08,12,32,20.20
2016,08,08,12,33,20.20
2016,08,08,12,34,20.20
2016,08,08,12,35,20.20
2016,08,08,12,36,20.20
2016,08,08,12,37,20.20
2016,08,08,12,38,20.30
2016,08,08,12,39,20.30
2016,08,08,12,40,20.40
2016,08,08,12,41,20.40
2016,08,08,12,42,20.40
2016,08,08,12,43,20.40
2016,08,08,12,44,20.40
2016,08,08,12,45,20.40
2016,08,08,12,46,20.40
2016,08,08,12,47,20.40
2016,08,08,12,48,20.50
2016,08,08,12,49,20.50
2016,08,08,12,50,20.50
2016,08,08,12,51,20.50
2016,08,08,12,52,20.50
2016,08,08,12,53,20.50
2016,08,08,12,54,20.60
2016,08,08,12,55,20.70
2016,08,08,12,56,20.80
2016,08,08,12,57,20.90
2016,08,08,12,58,20.90
2016,08,08,12,59,20.90
2016,08,08,13,00,20.90
2016,08,08,13,01,20.90
2016,08,08,13,02,20.90
2016,08,08,13,03,20.90
2016,08,08,13,04,20.90
2016,08,08,13,05,20.90
2016,08,08,13,06,20.90
2016,08,08,13,07,20.90
2016,08,08,13,08,20.90
2016,08,08,13,09,20.90
2016,08,08,13,10,20.90
2016,08,08,13,11,20.90
2016,08,08,13,12,20.90
2016,08,08,13,13,21.00
2016,08,08,13,14,21.00
2016,08,08,13,15,21.00
2016,08,08,13,16,21.00
2016,08,08,13,17,21.10
2016,08,08,13,18,21.10
2016,08,08,13,19,21.10
2016,08,08,13,20,21.10
2016,08,08,13,21,21.10
2016,08,08,13,22,21.00
2016,08,08,13,23,20.90
2016,08,08,13,24,20.90
2016,08,08,13,25,20.80
2016,08,08,13,26,20.80
2016,08,08,13,27,20.80
2016,08,08,13,28,20.80
2016,08,08,13,29,20.80
2016,08,08,13,30,20.80
2016,08,08,13,31,20.80
2016,08,08,13,32,20.80
2016,08,08,13,33,20.80
2016,08,08,13,34,20.70
2016,08,08,13,35,20.70
2016,08,08,13,36,20.80
2016,08,08,13,37,20.80
2016,08,08,13,38,20.90
2016,08,08,13,39,21.00
2016,08,08,13,40,21.00
2016,08,08,13,41,21.10
2016,08,08,13,42,21.00
2016,08,08,13,43,21.00
2016,08,08,13,44,20.90
2016,08,08,13,45,20.90
2016,08,08,13,46,20.80
2016,08,08,13,47,20.70
2016,08,08,13,48,20.60
2016,08,08,13,49,20.50
2016,08,08,13,50,20.40
2016,08,08,13,51,20.40
2016,08,08,13,52,20.40
2016,08,08,13,53,20.40
2016,08,08,13,54,20.40
2016,08,08,13,55,20.50
2016,08,08,13,56,20.60
2016,08,08,13,57,20.60
2016,08,08,13,58,20.60
2016,08,08,13,59,20.60
2016,08,08,14,00,20.60
2016,08,08,14,01,20.60
2016,08,08,14,02,20.60
2016,08,08,14,03,20.70
2016,08,08,14,04,20.70
2016,08,08,14,05,20.70
2016,08,08,14,06,20.70
2016,08,08,14,07,20.70
2016,08,08,14,08,20.70
2016,08,08,14,09,20.80
2016,08,08,14,10,20.80
2016,08,08,14,11,20.70
2016,08,08,14,12,20.70
2016,08,08,14,13,20.60
2016,08,08,14,14,20.60
2016,08,08,14,15,20.60
2016,08,08,14,16,20.60
2016,08,08,14,17,20.60
2016,08,08,14,18,20.60
2016,08,08,14,19,20.50
2016,08,08,14,20,20.40
2016,08,08,14,21,20.30
2016,08,08,14,22,20.30
2016,08,08,14,23,20.20
2016,08,08,14,24,20.20
2016,08,08,14,25,20.20
2016,08,08,14,26,20.10
2016,08,08,14,27,20.10
2016,08,08,14,28,20.10
2016,08,08,14,29,20.10
2016,08,08,14,30,20.10
2016,08,08,14,31,20.00
2016,08,08,14,32,20.10
2016,08,08,14,33,20.10
2016,08,08,14,34,20.10
2016,08,08,14,35,20.10
2016,08,08,14,36,20.20
2016,08,08,14,37,20.20
2016,08,08,14,38,20.20
2016,08,08,14,39,20.20
2016,08,08,14,40,20.20
2016,08,08,14,41,20.20
2016,08,08,14,42,20.20
2016,08,08,14,43,20.20
2016,08,08,14,44,20.10
2016,08,08,14,45,20.10
2016,08,08,14,46,20.10
2016,08,08,14,47,20.10
2016,08,08,14,48,20.10
2016,08,08,14,49,20.10
2016,08,08,14,50,20.10
2016,08,08,14,51,20.10
2016,08,08,14,52,20.20
2016,08,08,14,53,20.20
2016,08,08,14,54,20.30
2016,08,08,14,55,20.30
2016,08,08,14,56,20.30
2016,08,08,14,57,20.40
2016,08,08,14,58,20.40
2016,08,08,14,59,20.40
2016,08,08,15,00,20.50
2016,08,08,15,01,20.50
2016,08,08,15,02,20.50
2016,08,08,15,03,20.60
2016,08,08,15,04,20.60
2016,08,08,15,05,20.60
2016,08,08,15,06,20.70
2016,08,08,15,07,20.70
2016,08,08,15,08,20.80
2016,08,08,15,09,20.80
2016,08,08,15,10,20.80
2016,08,08,15,11,20.90
2016,08,08,15,12,20.90
2016,08,08,15,13,20.90
2016,08,08,15,14,20.90
2016,08,08,15,15,21.00
2016,08,08,15,16,21.00
2016,08,08,15,17,21.10
2016,08,08,15,18,21.20
2016,08,08,15,19,21.30
2016,08,08,15,20,21.40
2016,08,08,15,21,21.60
2016,08,08,15,22,21.70
2016,08,08,15,23,21.80
2016,08,08,15,24,21.90
2016,08,08,15,25,22.00
2016,08,08,15,26,22.10
2016,08,08,15,27,22.20
2016,08,08,15,28,22.30
2016,08,08,15,29,22.30
2016,08,08,15,30,22.30
2016,08,08,15,31,22.30
2016,08,08,15,32,22.30
2016,08,08,15,33,22.30
2016,08,08,15,34,22.40
2016,08,08,15,35,22.40
2016,08,08,15,36,22.40
2016,08,08,15,37,22.40
2016,08,08,15,38,22.40
2016,08,08,15,39,22.40
2016,08,08,15,40,22.30
2016,08,08,15,41,22.30
2016,08,08,15,42,22.30
2016,08,08,15,43,22.30
2016,08,08,15,44,22.40
2016,08,08,15,45,22.40
2016,08,08,15,46,22.40
2016,08,08,15,47,22.50
2016,08,08,15,48,22.50
2016,08,08,15,49,22.60
2016,08,08,15,50,22.60
2016,08,08,15,51,22.50
2016,08,08,15,52,22.50
2016,08,08,15,53,22.40
2016,08,08,15,54,22.20
2016,08,08,15,55,22.20
2016,08,08,15,56,22.10
2016,08,08,15,57,22.10
2016,08,08,15,58,22.10
2016,08,08,15,59,22.00
2016,08,08,16,00,22.00
2016,08,08,16,01,22.00
2016,08,08,16,02,22.00
2016,08,08,16,03,21.90
2016,08,08,16,04,21.90
2016,08,08,16,05,21.90
2016,08,08,16,06,21.80
2016,08,08,16,07,21.70
2016,08,08,16,08,21.60
2016,08,08,16,09,21.60
2016,08,08,16,10,21.60
2016,08,08,16,11,21.70
2016,08,08,16,12,21.70
2016,08,08,16,13,21.70
2016,08,08,16,14,21.70
2016,08,08,16,15,21.80
2016,08,08,16,16,21.90
2016,08,08,16,17,22.00
2016,08,08,16,18,22.10
2016,08,08,16,19,22.20
2016,08,08,16,20,22.30
2016,08,08,16,21,22.30
2016,08,08,16,22,22.50
2016,08,08,16,23,22.50
2016,08,08,16,24,22.60
2016,08,08,16,25,22.70
2016,08,08,16,26,22.70
2016,08,08,16,27,22.80
2016,08,08,16,28,22.80
2016,08,08,16,29,22.80
2016,08,08,16,30,22.80
2016,08,08,16,31,22.70
2016,08,08,16,32,22.70
2016,08,08,16,33,22.70
2016,08,08,16,34,22.60
2016,08,08,16,35,22.60
2016,08,08,16,36,22.50
2016,08,08,16,37,22.40
2016,08,08,16,38,22.30
2016,08,08,16,39,22.20
2016,08,08,16,40,22.20
2016,08,08,16,41,22.10
2016,08,08,16,42,22.10
2016,08,08,16,43,22.10
2016,08,08,16,44,21.90
2016,08,08,16,45,21.90
2016,08,08,16,46,21.70
2016,08,08,16,47,21.60
2016,08,08,16,48,21.60
2016,08,08,16,49,21.50
2016,08,08,16,50,21.50
2016,08,08,16,51,21.50
2016,08,08,16,52,21.40
2016,08,08,16,53,21.40
2016,08,08,16,54,21.40
2016,08,08,16,55,21.40
2016,08,08,16,56,21.30
2016,08,08,16,57,21.30
2016,08,08,16,58,21.20
2016,08,08,16,59,21.20
2016,08,08,17,00,21.20
2016,08,08,17,01,21.10
2016,08,08,17,02,21.00
2016,08,08,17,03,20.90
2016,08,08,17,04,20.90
2016,08,08,17,05,20.80
2016,08,08,17,06,20.80
2016,08,08,17,07,20.70
2016,08,08,17,08,20.70
2016,08,08,17,09,20.70
2016,08,08,17,10,20.70
2016,08,08,17,11,20.60
2016,08,08,17,12,20.60
2016,08,08,17,13,20.50
2016,08,08,17,14,20.50
2016,08,08,17,15,20.50
2016,08,08,17,16,20.50
2016,08,08,17,17,20.50
2016,08,08,17,18,20.50
2016,08,08,17,19,20.40